Tracking 28514 objects as of 23-Feb-2024
HD Live streaming from Space Station
objects crossing your sky now

IUS R/B(2)

Track IUS R/B(2) now!


NORAD ID: 20932
Int'l Code: 1990-095D
Perigee: 36,059.2 km
Apogee: 36,104.8 km
Inclination: 14.4 °
Period: 1,450.8 minutes
Semi major axis: 42452 km
RCS: Unknown
Launch date: November 13, 1990
Source: United States (US)
Launch site: AIR FORCE EASTERN TEST RANGE (AFETR)

Note: This is a ROCKET BODY
Your satellite tracking list
Your tracking list is empty




NASA's NSSDC Master Catalog

Two Line Element Set (TLE):
1 20932U 90095D   24053.39977257  .00000072  00000-0  00000-0 0  9991
2 20932  14.4460 348.3407 0005378  52.0484 308.0270  0.99252216 17332
Source of the keplerian elements: McCants